Regional Weather Roundup
Issued by NWS

Home | Current Version | Previous Version | Text Only | Print | Product List | Glossary On
Versions: 1 2 3 4 5 6 7 8 9 10 11 12 13 14 15 16 17 18 19 20 21 22 23 24 25 26 27 28 29 30 31 32 33 34 35 36 37 38 39 40 41 42 43 44 45 46 47 48 49 50
000
ASUS44 KFWD 281615
RWRTX
NORTH TEXAS HOURLY WEATHER ROUNDUP
NATIONAL WEATHER SERVICE FORT WORTH TX
1100 AM CDT THU AUG 28 2014

NOTE: "FAIR" INDICATES FEW OR NO CLOUDS BELOW 12,000 FEET WITH NO
SIGNIFICANT WEATHER AND/OR OBSTRUCTIONS TO VISIBILITY.

TXZ118-119-281700-
DALLAS/FORT WORTH METROPLEX

CITY           SKY/WX    TMP DP  RH WIND       PRES   REMARKS
DFW AIRPORT    MOSUNNY   88  68  51 S12       29.98R HX  91
DALLAS LOVE    MOSUNNY   88  68  51 S12       29.98S HX  91
FTW MEACHAM    SUNNY     89  66  46 S9        29.97S HX  91
DAL-EXECUTIVE  SUNNY     89  67  47 S8        29.98S HX  92
FTW-ALLIANCE   MOSUNNY   88  66  48 S13       29.97S HX  90
FTW-NAS-JRB    SUNNY     91  63  39 S12       30.01F HX  92
FTW-SPINKS     SUNNY     88  66  48 SE12G18   30.00S HX  90
ARLINGTON      SUNNY     87  66  49 S9G20     29.98S
GRAND PRAIRIE  SUNNY     88  64  45 S9        30.00R
ADDISON        SUNNY     86  66  51 S7        29.99
LANCASTER      SUNNY     88  67  49 SE8       29.99S HX  91
$$

TXZ091>094-102>105-117-120-121-131>134-281700-
NORTH CENTRAL TEXAS

CITY           SKY/WX    TMP DP  RH WIND       PRES   REMARKS
SHRMAN/DENISON SUNNY     87  67  51 SW13G18   30.00S HX  90
GAINESVILLE    SUNNY     85  69  57 S12       30.00S
BOWIE          SUNNY     86  66  51 S8G16     29.99S
BRIDGEPORT     SUNNY     88  62  41 SW10G17   30.00S
DECATUR        SUNNY     86  65  49 SW10      29.99F
DENTON         SUNNY     87  67  51 S13       29.98S HX  90
MCKINNEY       SUNNY     87  68  52 S9        29.99R HX  90
GREENVILLE     SUNNY     88  66  48 S8        30.00R HX  90
ROCKWALL       MOSUNNY   86  72  61 S8        29.98S HX  92
TERRELL        SUNNY     89  69  51 SE7       29.99S HX  93
WAXAHACHIE     SUNNY     87  66  49 S9        30.00S
CLEBURNE       SUNNY     86  68  54 S12       30.01S
GRANBURY       SUNNY     89  65  43 S9        29.99S HX  91
$$

TXZ083>090-098>101-113>116-127>130-139>142-154-155-281700-
WESTERN NORTH TEXAS

CITY           SKY/WX    TMP DP  RH WIND       PRES   REMARKS
WICHITA FALLS  SUNNY     90  60  36 S13       29.95S
WF-KICKAPOO    SUNNY     91  58  33 S8        29.97S
VERNON         MOSUNNY   91  55  28 SW14      29.96S
ABILENE        SUNNY     89  63  41 SW13      30.00S HX  90
ABILENE-DYESS  SUNNY     88  63  42 S14       29.99R
BRECKENRIDGE   SUNNY     91  59  34 S6        29.97S HX  90
GRAHAM         SUNNY     90  62  38 S7        29.96S HX  90
MINERAL WELLS  SUNNY     87  65  47 S10       29.97S
STEPHENVILLE   SUNNY     87  64  46 S6        30.02S
COMANCHE         N/A     88  63  42 S7        30.00S
BROWNWOOD      SUNNY     88  63  42 SE9G18    30.00S
COLEMAN        SUNNY     86  62  43 S9        30.01S
BRADY          SUNNY     84  64  51 SE8       30.01S
$$

TXZ143>147-156>162-174-175-281700-
CENTRAL TEXAS

CITY           SKY/WX    TMP DP  RH WIND       PRES   REMARKS
WACO           SUNNY     86  70  58 VRB7      29.98S HX  90
WACO-TSTC      SUNNY     88  70  55 S7        29.98S HX  92
WACO-MCGREGOR  MOSUNNY   90  68  48 S9        29.99S HX  93
HILLSBORO      SUNNY     87  67  51 SE9       29.99S HX  90
CORSICANA      MOSUNNY   88  70  55 SE10      30.00R HX  93
MEXIA          PTSUNNY   86  71  60 SE7       29.98S HX  91
HEARNE           N/A     85  74  70 E5        29.98S HX  92
CAMERON        PTSUNNY   89  72  58 SE7       29.97S HX  95
TEMPLE         PTSUNNY   84  68  58 SE6       29.99R
KILLEEN        MOSUNNY   86  66  51 SE8       29.99S
KILLEEN-SKYLRK MOSUNNY   84  68  58 E8        29.99S
FORT HOOD      SUNNY     89  69  51 S5        29.99S HX  93
GATESVILLE     SUNNY     86  66  51 SE7       30.01S
HAMILTON       SUNNY     87  65  48 SE8       30.01S
$$

TXZ095>097-106>112-122>126-135>138-148>153-164>167-281700-
EAST TEXAS

CITY           SKY/WX    TMP DP  RH WIND       PRES   REMARKS
PARIS          SUNNY     86  68  54 S6        30.01S
SULPHUR SPRNGS SUNNY     88  68  51 SE5       30.02R HX  91
CLARKSVILLE    SUNNY     87  70  56 CALM      30.01R HX  92
MOUNT PLEASANT SUNNY     88  69  54 S5        30.02S HX  92
GILMER         SUNNY     88  72  58 S3        30.02S HX  94
MINEOLA        SUNNY     88  70  55 S7        30.00S HX  92
TYLER          MOSUNNY   87  70  56 SE9G18    30.00R HX  92
LONGVIEW       MOSUNNY   86  70  58 SE6       30.00R HX  90
MARSHALL       SUNNY     89  73  60 CALM      30.02S HX  97
ATHENS         MOSUNNY   86  70  58 E9        29.99S HX  90
PALESTINE      PTSUNNY   85  73  67 E5        30.00S HX  92
JACKSONVILLE   CLOUDY    85  71  63 E5        30.03S HX  91
HENDERSON      MOSUNNY   88  70  55 SE7       30.01S HX  92
NACOGDOCHES    MOSUNNY   88  72  58 E12       30.00R HX  94
LUFKIN         SUNNY     89  73  59 E8        29.99S HX  97
$$

SUPPLEMENTAL OBSERVATIONS (CENTRAL)

CITY           SKY/WX    TMP DP  RH WIND       PRES   REMARKS
LAKE TEXOMA      N/A     84  66  54 SW10        N/A
PAT MAYSE LAKE   N/A     82  70  65 S3          N/A
GREENVILLE       N/A     90  68  48 S7          N/A  HX  93
ATHENS           N/A     90  72  55 SE12        N/A  HX  96
LAKE LIMESTONE   N/A     88  72  58 SE6         N/A  HX  94
MCGREGOR         N/A     90  70  51 S8          N/A  HX  95
TEMPLE           N/A     88  70  55 S7          N/A  HX  92
$$

SUPPLEMENTAL OBSERVATIONS (WEST)

CITY           SKY/WX    TMP DP  RH WIND       PRES   REMARKS
MILLERS CREEK    N/A     91  63  38 SW14        N/A  HX  92
GRANBURY         N/A     90  64  43 S10         N/A  HX  91
COMANCHE         N/A     90  66  45 S8          N/A  HX  92
HAMBY            N/A     90  63  40 SW13        N/A  HX  90
IVIE RESERVOIR   N/A     90  63  40 S6          N/A  HX  90
COLORADO BEND    N/A     88  68  51 S6          N/A  HX  91
$$

SUPPLEMENTAL OBSERVATIONS (EAST)

CITY           SKY/WX    TMP DP  RH WIND       PRES   REMARKS
TEXARKANA        N/A     91  72  52 S2          N/A  HX  98
LINDEN           N/A     90  70  51 S2          N/A  HX  95
GILMER           N/A     90  72  55 E3          N/A  HX  96
HENDERSON        N/A     90  72  55 SE5         N/A  HX  96
LUFKIN           N/A     88  72  58 MISG        N/A  HX  94
N SABINE NF      N/A     91  75  59 MISG        N/A  HX 102
$$

SUPPLEMENTAL OBSERVATIONS ARE A COLLECTION OF AUTOMATED INSTRUMENTS
THAT ARE MAINTAINED BY A VARIETY OF FEDERAL AND STATE AGENCIES.
CERTAIN ELEMENTS...SUCH AS HUMIDITY VALUES AND SUSTAINED WIND
SPEEDS...MAY BE APPROXIMATED.



USA.gov is the U.S. government's official web portal to all federal, state and local government web resources and services.